Regional Weather Roundup
Issued by NWS

Home | Current Version | Previous Version | Text Only | Print | Product List | Glossary On
Versions: 1 2 3 4 5 6 7 8 9 10 11 12 13 14 15 16 17 18 19 20 21 22 23 24 25 26 27 28 29 30 31 32 33 34 35 36 37 38 39 40 41 42 43 44 45 46 47 48 49 50
076
ASUS43 KDTX 210701
RWRMI
MICHIGAN HOURLY REGIONAL WEATHER ROUNDUP
NATIONAL WEATHER SERVICE DETROIT/PONTIAC MI
200 AM EST TUE NOV 21 2017

NOTE: "FAIR" INDICATES FEW OR NO CLOUDS BELOW 12,000 FEET WITH NO
SIGNIFICANT WEATHER AND/OR OBSTRUCTION TO VISIBILITY.

MIZ047>049-052>055-059>063-066>070-074>076-081>083-210800-
SOUTHEAST LOWER MICHIGAN

CITY           SKY/WX    TMP DP  RH WIND       PRES   REMARKS
ADRIAN         CLEAR     35  26  69 SW14      29.80F WCI  26
ALMA           PTCLDY    40  29  63 S13G20    29.63F WCI  33
ANN ARBOR      CLEAR     38  26  62 S12       29.77F WCI  30
BAD AXE        CLEAR     41  26  53 SW17G28   29.62F
CARO           CLEAR     41  26  56 S18G24    29.64F
DETROIT CITY   CLEAR    N/A N/A N/A SW18G25   29.78F
DETROIT        PTCLDY    39  26  59 SW21G29   29.79F WCI  29
FLINT          CLEAR     40  25  55 SW15G26   29.69F WCI  32
GROSSE ILE     CLEAR     40  27  59 SW13G21   29.79F WCI  33
HILLSDALE      CLEAR     37  23  56 SW14      29.76F WCI  29
HOWELL         CLEAR     39  26  58 S12       29.71F WCI  32

CITY           SKY/WX    TMP DP  RH WIND       PRES   REMARKS
JACKSON        CLEAR     41  23  48 S21G29    29.73F
LAMBERTVILLE   CLEAR     42  25  52 S13G22    29.81F
LANSING        PTCLDY    41  26  55 SW18G32   29.69F
LAPEER         FAIR      41  25  53 SW18G26   29.69F
MASON          PTCLDY    43  25  49 SW13G28   29.71F
MONROE         CLEAR     41  24  51 SW13G18   29.79F
MT. CLEMENS    CLEAR     40  26  56 SW17G28   29.75F WCI  32
PONTIAC        CLEAR     39  25  57 SW12G23   29.73F WCI  32
PORT HOPE        N/A     44  26  49 S13G23    29.59F
PORT HURON     CLEAR     41  25  52 S14G21    29.74F
TRI CITIES     CLEAR     42  28  57 S20G28    29.62F
MIDLAND        FAIR      42  29  59 SW16G23   29.60F
TROY           CLEAR     42  25  50 SW14G24   29.78F
SAGINAW HB     CLEAR     41  28  60 SW17G25   29.63F
$$
MIZ043>046-050>051-056>058-064>065-071>073-077>080-210800-
SOUTHWEST LOWER MICHIGAN

CITY           SKY/WX    TMP DP  RH WIND       PRES   REMARKS
BATTLE CREEK   CLOUDY    41  26  55 SW22G32   29.71F
BENTON HARBOR  PTCLDY    43  27  53 S10G18    29.70F
BIG RAPIDS     CLEAR     43  32  65 SW8G22    29.55F
COLDWATER      CLOUDY    40  23  51 SW16G24   29.76S WCI  31
FREMONT        FAIR      45  35  66 SW22G31   29.58F
HOLLAND        CLEAR     45  32  60 SW25G33   29.65F
GRAND RAPIDS   CLEAR     43  29  57 SW22G30   29.64F
IONIA          FAIR      41  27  56 S17G23    29.64F
KALAMAZOO      CLOUDY    41  24  51 S20G26    29.71F
LUDINGTON      MOCLDY    46  36  66 SW26G33   29.52S
MARSHALL       PTCLDY    40  24  51 SW17G25   29.72F WCI  31
MOUNT PLEASANT PTCLDY    43  28  53 SW16G23   29.58F
MUSKEGON       PTCLDY    48  35  60 SW29G39   29.60F
SOUTH HAVEN    CLEAR     43  27  53 S10G20    29.68F
$$
MIZ016>042-210800-
NORTHERN LOWER MICHIGAN

CITY           SKY/WX    TMP DP  RH WIND       PRES   REMARKS
ALPENA         PTCLDY    42  33  70 S13       29.47F
BEAVER ISLAND  PTCLDY    49  39  70 SW20G29   29.35F
BELLAIRE       PTCLDY    47  36  64 SW10G18   29.43F
CADILLAC       CLEAR     41  33  72 SW15G23   29.49F
CHARLEVOIX     CLEAR     48  35  61 S17G29    29.42S
FRANKFORT      PTCLDY    48  38  67 S21G32    29.46S
GAYLORD        CLEAR     42  31  64 SW21G31   29.42F
GRAYLING       CLEAR     43  32  65 SW17G24   29.47F
HARBOR SPRINGS CLEAR     47  35  61 SW17G26   29.38S
MANISTEE       MOCLDY    48  34  58 SW17G32   29.48F
OSCODA         PTCLDY    41  28  59 SW16G24   29.54F
PELLSTON       CLEAR     48  34  58 SW16G30   29.38F
ROGERS CITY    CLEAR     45  34  65 SW12      29.42F
TRAVERSE CITY  CLEAR     48  33  56 SW12G23   29.44F
$$
MIZ007>008-015-210800-
EASTERN UPPER MICHIGAN

CITY           SKY/WX    TMP DP  RH WIND       PRES   REMARKS
KINROSS        CLOUDY    47  38  71 SW13G24   29.32F
MACKINAC ISLAN CLEAR     48  34  56 SW18G29   29.34F
NEWBERRY       MOCLDY    44  37  77 SW16G23   29.29F
S. S. MARIE    CLOUDY    40  35  83 SE5       29.31F
MUNISING         N/A     42  32  67 SW13G22   29.27S
$$
MIZ004>006-011>014-085-210800-
CENTRAL UPPER MICHIGAN

CITY           SKY/WX    TMP DP  RH WIND       PRES   REMARKS
MANISTIQUE     CLOUDY    46  29  53 SW10G18   29.31F
ESCANABA       CLOUDY    42  32  67 SW12      29.33F
MENOMINEE      CLEAR     45  30  55 SW12      29.38F
SAWYER-GWINN   CLOUDY    32  29  90 S9        29.27F WCI  24
$$
MIZ001>003-009>011-084-210800-
WESTERN UPPER MICHIGAN

CITY           SKY/WX    TMP DP  RH WIND       PRES   REMARKS
IRON MOUNTAIN  CLOUDY    41  27  57 SW10      29.30F
HOUGHTON       CLOUDY    40  29  64 W31G43    29.20R WCI  28
COPPER HARBOR    N/A     42  30  62 NW16G31   29.17S
IRONWOOD       CLOUDY    38  28  67 W20G26    29.31R WCI  28
$$

ABBREVIATIONS USED IN REMARKS
   TC - TEMPERATURE IN CELSIUS
  WCI - WIND CHILL INDEX
   HX - HEAT INDEX
  VSB - VISIBILITY





USA.gov is the U.S. government's official web portal to all federal, state and local government web resources and services.